FW1790 Weather Reports


Display with metric or nautical units.
time (UTC)temp
F
wind
direction
speed
MPH
gust
MPH
rain 1hr
in
rain 24hr
in
rain mn
in
humidity
%
barometer
mb
20260508075720 55 258 5.0 6.0 0.00 0.00 0.00 47 1015.0
20260508075220 55 264 4.0 4.0 0.00 0.00 0.00 47 1015.0
20260508074720 55 261 4.0 5.0 0.00 0.00 0.00 48 1015.0
20260508074221 55 263 5.0 6.0 0.00 0.00 0.00 48 1015.0
20260508073721 56 254 4.0 5.0 0.00 0.00 0.00 47 1015.0
20260508073221 56 244 3.0 3.0 0.00 0.00 0.00 48 1015.0
20260508072721 56 238 3.0 3.0 0.00 0.00 0.00 47 1015.0
20260508072221 56 236 4.0 5.0 0.00 0.00 0.00 47 1015.0
20260508071722 57 238 3.0 4.0 0.00 0.00 0.00 45 1015.0
20260508071220 57 235 2.0 3.0 0.00 0.00 0.00 46 1015.0
20260508070724 57 239 2.0 3.0 0.00 0.00 0.00 45 1015.0
20260508070220 57 247 4.0 5.0 0.00 0.00 0.00 45 1015.0
20260508065721 57 248 4.0 5.0 0.00 0.00 0.00 46 1015.0
20260508065220 58 239 4.0 5.0 0.00 0.00 0.00 45 1015.0
20260508064720 59 247 2.0 3.0 0.00 0.00 0.00 43 1015.0
20260508064221 60 229 4.0 6.0 0.00 0.00 0.00 41 1015.0
20260508063722 60 232 4.0 4.0 0.00 0.00 0.00 40 1015.0
20260508063220 60 275 2.0 3.0 0.00 0.00 0.00 40 1015.0
20260508062720 59 284 3.0 4.0 0.00 0.00 0.00 39 1015.0
20260508062220 58 301 3.0 5.0 0.00 0.00 0.00 41 1015.0
20260508061720 58 345 2.0 4.0 0.00 0.00 0.00 44 1015.0
20260508061225 58 353 4.0 5.0 0.00 0.00 0.00 43 1015.0
20260508060721 59 304 1.0 1.0 0.00 0.00 0.00 41 1015.0
20260508060221 60 290 2.0 2.0 0.00 0.00 0.00 41 1015.0
20260508055720 60 0 0.0 0.0 0.00 0.00 0.00 39 1015.0
20260508055220 60 237 3.0 3.0 0.00 0.00 0.00 39 1014.0
20260508054721 59 264 4.0 4.0 0.00 0.00 0.00 40 1014.0
20260508054221 59 266 4.0 4.0 0.00 0.00 0.00 41 1014.0
20260508053720 59 270 4.0 5.0 0.00 0.00 0.00 43 1014.0
20260508053221 59 275 2.0 2.0 0.00 0.00 0.00 43 1014.0
20260508052720 59 280 2.0 3.0 0.00 0.00 0.00 42 1014.0
20260508052220 59 276 3.0 4.0 0.00 0.00 0.00 41 1014.0
20260508051728 59 253 1.0 2.0 0.00 0.00 0.00 43 1015.0
20260508051220 59 128 2.0 3.0 0.00 0.00 0.00 42 1014.0
20260508050721 60 132 2.0 2.0 0.00 0.00 0.00 42 1014.0
20260508050221 60 166 2.0 3.0 0.00 0.00 0.00 41 1014.0
20260508045720 60 261 6.0 7.0 0.00 0.00 0.00 40 1014.0
20260508044750 61 263 6.0 7.0 0.00 0.00 0.00 39 1014.0
20260508044220 61 266 5.0 6.0 0.00 0.00 0.00 39 1014.0
20260508043720 61 261 5.0 7.0 0.00 0.00 0.00 39 1014.0
20260508043221 61 265 6.0 8.0 0.00 0.00 0.00 39 1014.0
20260508042722 61 264 4.0 5.0 0.00 0.00 0.00 39 1014.0
20260508042220 62 263 5.0 6.0 0.00 0.00 0.00 39 1014.0
20260508041721 62 271 6.0 6.0 0.00 0.00 0.00 39 1014.0
20260508041220 62 265 5.0 6.0 0.00 0.00 0.00 39 1014.0
20260508040721 63 271 5.0 7.0 0.00 0.00 0.00 38 1014.0
20260508040222 63 268 5.0 5.0 0.00 0.00 0.00 38 1014.0
20260508035720 63 267 3.0 4.0 0.00 0.00 0.00 37 1014.0
20260508035220 64 261 4.0 5.0 0.00 0.00 0.00 37 1014.0
20260508034721 64 262 5.0 6.0 0.00 0.00 0.00 37 1014.0
20260508034220 64 258 5.0 6.0 0.00 0.00 0.00 37 1014.0
20260508033720 64 265 6.0 7.0 0.00 0.00 0.00 37 1014.0
20260508033220 65 264 6.0 8.0 0.00 0.00 0.00 37 1014.0
20260508032720 65 270 6.0 8.0 0.00 0.00 0.00 36 1014.0
20260508032221 66 271 5.0 6.0 0.00 0.00 0.00 35 1014.0
20260508031720 66 260 5.0 6.0 0.00 0.00 0.00 35 1014.0
20260508031221 66 255 5.0 6.0 0.00 0.00 0.00 34 1014.0
20260508030721 66 256 4.0 5.0 0.00 0.00 0.00 34 1014.0
20260508030220 67 265 3.0 4.0 0.00 0.00 0.00 33 1014.0
20260508025721 68 266 3.0 3.0 0.00 0.00 0.00 32 1014.0
20260508025220 69 273 2.0 3.0 0.00 0.00 0.00 30 1014.0
20260508024720 70 284 2.0 2.0 0.00 0.00 0.00 28 1013.0
20260508024220 70 268 1.0 2.0 0.00 0.00 0.00 27 1013.0
20260508023721 70 264 1.0 2.0 0.00 0.00 0.00 28 1013.0
20260508023223 71 258 0.0 2.0 0.00 0.00 0.00 28 1014.0
20260508022720 71 260 1.0 2.0 0.00 0.00 0.00 27 1014.0
20260508022220 72 271 1.0 2.0 0.00 0.00 0.00 27 1014.0
20260508021721 73 0 0.0 0.0 0.00 0.00 0.00 25 1014.0
20260508021220 73 0 0.0 0.0 0.00 0.00 0.00 25 1013.0
20260508020720 73 0 0.0 0.0 0.00 0.00 0.00 25 1013.0
20260508020221 73 115 0.0 1.0 0.00 0.00 0.00 25 1013.0
20260508015721 73 0 0.0 0.0 0.00 0.00 0.00 25 1013.0
20260508015220 73 94 1.0 2.0 0.00 0.00 0.00 24 1013.0
20260508014721 73 96 0.0 2.0 0.00 0.00 0.00 24 1013.0
20260508014220 73 66 0.0 2.0 0.00 0.00 0.00 24 1013.0
20260508013721 73 93 4.0 4.0 0.00 0.00 0.00 24 1013.0
20260508013220 74 94 3.0 5.0 0.00 0.00 0.00 24 1013.0
20260508012720 74 80 4.0 6.0 0.00 0.00 0.00 24 1013.0
20260508012220 74 65 1.0 2.0 0.00 0.00 0.00 24 1013.0
20260508011720 74 81 2.0 3.0 0.00 0.00 0.00 24 1013.0
20260508011221 75 112 4.0 5.0 0.00 0.00 0.00 23 1013.0
20260508010721 74 141 0.0 2.0 0.00 0.00 0.00 24 1013.0
20260508010220 74 109 2.0 3.0 0.00 0.00 0.00 24 1013.0
20260508005721 73 104 3.0 4.0 0.00 0.00 0.00 24 1013.0
20260508005221 73 77 1.0 4.0 0.00 0.00 0.00 25 1013.0
20260508004720 73 97 1.0 3.0 0.00 0.00 0.00 24 1014.0
20260508004221 73 326 0.0 1.0 0.00 0.00 0.00 24 1013.0
20260508003720 73 0 0.0 0.0 0.00 0.00 0.00 24 1013.0
20260508003221 73 71 3.0 4.0 0.00 0.00 0.00 24 1013.0
20260508002721 73 79 3.0 4.0 0.00 0.00 0.00 24 1013.0
20260508002220 73 0 0.0 0.0 0.00 0.00 0.00 24 1014.0
20260508001726 73 77 4.0 6.0 0.00 0.00 0.00 24 1014.0
20260508001221 73 352 1.0 2.0 0.00 0.00 0.00 24 1014.0
20260508000721 74 81 4.0 5.0 0.00 0.00 0.00 24 1014.0
20260508000220 74 78 3.0 4.0 0.00 0.00 0.00 25 1014.0
20260507235720 74 44 0.0 1.0 0.00 0.00 0.00 24 1014.0
20260507235221 74 62 5.0 7.0 0.00 0.00 0.00 24 1014.0
20260507234721 74 36 4.0 6.0 0.00 0.00 0.00 24 1014.0
20260507234220 75 3 4.0 8.0 0.00 0.00 0.00 23 1014.0
20260507233721 75 15 3.0 6.0 0.00 0.00 0.00 24 1014.0
20260507233220 75 14 6.0 10.0 0.00 0.00 0.00 23 1013.0
20260507232720 74 12 6.0 9.0 0.00 0.00 0.00 23 1013.0
20260507232220 74 16 4.0 7.0 0.00 0.00 0.00 24 1014.0
20260507231721 73 59 4.0 6.0 0.00 0.00 0.00 25 1014.0
20260507231220 74 28 4.0 8.0 0.00 0.00 0.00 24 1014.0
20260507230721 75 39 7.0 11.0 0.00 0.00 0.00 24 1014.0
20260507230221 75 40 7.0 10.0 0.00 0.00 0.00 24 1014.0
20260507225720 75 0 4.0 5.0 0.00 0.00 0.00 23 1014.0
20260507225220 75 348 4.0 9.0 0.00 0.00 0.00 23 1014.0
20260507224720 75 352 6.0 9.0 0.00 0.00 0.00 23 1014.0
20260507224220 74 8 6.0 9.0 0.00 0.00 0.00 24 1014.0
20260507223720 74 0 6.0 8.0 0.00 0.00 0.00 23 1014.0
20260507223220 75 50 5.0 7.0 0.00 0.00 0.00 24 1014.0
20260507222721 75 47 5.0 7.0 0.00 0.00 0.00 23 1014.0
20260507222220 74 23 2.0 5.0 0.00 0.00 0.00 22 1014.0
20260507221721 74 6 5.0 8.0 0.00 0.00 0.00 23 1014.0
20260507221220 74 7 7.0 10.0 0.00 0.00 0.00 22 1015.0
20260507220721 74 27 6.0 7.0 0.00 0.00 0.00 23 1015.0
20260507220221 75 359 8.0 11.0 0.00 0.00 0.00 22 1015.0
20260507215720 75 3 8.0 13.0 0.00 0.00 0.00 22 1015.0
20260507215221 75 0 5.0 9.0 0.00 0.00 0.00 22 1015.0
20260507214720 75 348 2.0 2.0 0.00 0.00 0.00 22 1015.0
20260507214221 75 320 2.0 4.0 0.00 0.00 0.00 22 1015.0
20260507213720 75 17 5.0 10.0 0.00 0.00 0.00 22 1015.0
20260507213220 75 334 2.0 6.0 0.00 0.00 0.00 23 1015.0
20260507212721 74 258 6.0 8.0 0.00 0.00 0.00 23 1015.0
20260507212220 73 210 2.0 4.0 0.00 0.00 0.00 22 1015.0
20260507211720 73 277 2.0 3.0 0.00 0.00 0.00 22 1015.0
20260507211221 74 279 9.0 11.0 0.00 0.00 0.00 22 1015.0
20260507210720 74 275 4.0 5.0 0.00 0.00 0.00 23 1015.0
20260507210221 74 284 3.0 6.0 0.00 0.00 0.00 23 1015.0
20260507205726 74 227 2.0 4.0 0.00 0.00 0.00 22 1016.0
20260507205221 74 257 5.0 9.0 0.00 0.00 0.00 22 1015.0
20260507204720 74 132 4.0 6.0 0.00 0.00 0.00 22 1015.0
20260507204221 73 142 2.0 4.0 0.00 0.00 0.00 22 1015.0
20260507203721 73 159 2.0 7.0 0.00 0.00 0.00 22 1015.0
20260507203220 73 184 6.0 8.0 0.00 0.00 0.00 22 1015.0
20260507202721 73 227 5.0 8.0 0.00 0.00 0.00 22 1015.0
20260507202220 72 166 4.0 5.0 0.00 0.00 0.00 22 1015.0
20260507201720 72 136 4.0 8.0 0.00 0.00 0.00 22 1015.0
20260507201220 71 136 5.0 8.0 0.00 0.00 0.00 23 1015.0
20260507200721 71 170 5.0 7.0 0.00 0.00 0.00 23 1015.0
20260507200220 71 154 8.0 9.0 0.00 0.00 0.00 22 1016.0
20260507195720 71 185 5.0 9.0 0.00 0.00 0.00 23 1016.0
20260507195221 71 134 6.0 9.0 0.00 0.00 0.00 23 1016.0
20260507194720 71 140 4.0 8.0 0.00 0.00 0.00 24 1016.0
20260507194220 70 159 6.0 8.0 0.00 0.00 0.00 23 1016.0
20260507193721 70 161 9.0 11.0 0.00 0.00 0.00 23 1016.0
20260507193221 70 149 8.0 12.0 0.00 0.00 0.00 23 1016.0
20260507192721 70 152 6.0 10.0 0.00 0.00 0.00 24 1016.0
20260507192221 69 148 7.0 13.0 0.00 0.00 0.00 24 1016.0
20260507191720 69 147 6.0 12.0 0.00 0.00 0.00 24 1016.0
20260507191220 69 154 7.0 10.0 0.00 0.00 0.00 24 1016.0
20260507190720 68 151 7.0 9.0 0.00 0.00 0.00 24 1016.0
20260507190220 68 138 8.0 11.0 0.00 0.00 0.00 24 1016.0
20260507185720 67 143 7.0 13.0 0.00 0.00 0.00 24 1016.0
20260507185221 67 144 8.0 11.0 0.00 0.00 0.00 25 1017.0
20260507184720 66 156 6.0 11.0 0.00 0.00 0.00 26 1017.0
20260507184220 67 157 7.0 11.0 0.00 0.00 0.00 25 1017.0
20260507183720 67 176 6.0 9.0 0.00 0.00 0.00 26 1016.0
20260507183221 66 157 5.0 8.0 0.00 0.00 0.00 26 1016.0
20260507182721 65 165 8.0 13.0 0.00 0.00 0.00 26 1016.0
20260507182228 65 163 9.0 12.0 0.00 0.00 0.00 26 1016.0
20260507181723 65 166 6.0 9.0 0.00 0.00 0.00 27 1017.0
20260507181225 65 169 8.0 13.0 0.00 0.00 0.00 27 1017.0
20260507180723 65 166 7.0 10.0 0.00 0.00 0.00 26 1017.0
20260507180220 64 156 9.0 13.0 0.00 0.00 0.00 28 1017.0
20260507175721 64 158 9.0 12.0 0.00 0.00 0.00 28 1017.0
20260507175220 64 172 5.0 9.0 0.00 0.00 0.00 28 1017.0
20260507174723 64 177 8.0 12.0 0.00 0.00 0.00 27 1017.0
20260507174221 65 166 10.0 12.0 0.00 0.00 0.00 26 1017.0
20260507173721 64 168 7.0 11.0 0.00 0.00 0.00 27 1016.0
20260507173221 63 154 7.0 9.0 0.00 0.00 0.00 29 1016.0
20260507172723 63 170 9.0 12.0 0.00 0.00 0.00 28 1017.0
20260507171731 62 163 6.0 13.0 0.00 0.00 0.00 29 1017.0
20260507171221 61 161 11.0 15.0 0.00 0.00 0.00 27 1017.0
20260507170721 61 172 10.0 13.0 0.00 0.00 0.00 27 1017.0
20260507170221 60 170 9.0 13.0 0.00 0.00 0.00 29 1017.0
20260507165721 60 168 8.0 13.0 0.00 0.00 0.00 32 1017.0
20260507165220 59 153 8.0 10.0 0.00 0.00 0.00 32 1017.0
20260507164721 59 162 9.0 12.0 0.00 0.00 0.00 33 1017.0
20260507164221 58 183 8.0 11.0 0.00 0.00 0.00 33 1017.0
20260507163722 58 163 7.0 9.0 0.00 0.00 0.00 36 1018.0
20260507163222 57 171 5.0 8.0 0.00 0.00 0.00 36 1018.0
20260507162722 57 177 8.0 12.0 0.00 0.00 0.00 38 1018.0
20260507162220 57 173 5.0 8.0 0.00 0.00 0.00 38 1018.0
20260507161722 57 170 7.0 10.0 0.00 0.00 0.00 38 1018.0
20260507161220 56 160 9.0 11.0 0.00 0.00 0.00 39 1018.0
20260507160720 56 164 8.0 11.0 0.00 0.00 0.00 40 1018.0
20260507160221 55 167 9.0 13.0 0.00 0.00 0.00 42 1018.0
20260507155721 55 179 7.0 10.0 0.00 0.00 0.00 43 1018.0
20260507155222 55 175 9.0 12.0 0.00 0.00 0.00 45 1018.0
20260507154721 54 165 9.0 12.0 0.00 0.00 0.00 46 1018.0
20260507154221 54 165 9.0 13.0 0.00 0.00 0.00 48 1018.0
20260507153720 54 169 8.0 14.0 0.00 0.00 0.00 49 1018.0
20260507153221 53 155 6.0 9.0 0.00 0.00 0.00 49 1018.0
20260507152722 53 167 6.0 11.0 0.00 0.00 0.00 48 1018.0
20260507152220 53 170 9.0 12.0 0.00 0.00 0.00 49 1018.0
20260507151722 53 167 11.0 18.0 0.00 0.00 0.00 49 1018.0
20260507151220 53 160 10.0 13.0 0.00 0.00 0.00 49 1018.0
20260507150721 53 157 8.0 11.0 0.00 0.00 0.00 52 1018.0
20260507150221 53 159 12.0 17.0 0.00 0.00 0.00 52 1018.0
20260507145720 52 165 12.0 15.0 0.00 0.00 0.00 52 1018.0
20260507145221 52 168 9.0 13.0 0.00 0.00 0.00 53 1018.0
20260507144722 52 162 10.0 14.0 0.00 0.00 0.00 53 1018.0
20260507144224 52 167 10.0 13.0 0.00 0.00 0.00 53 1018.0
20260507143724 52 159 6.0 9.0 0.00 0.00 0.00 52 1018.0
20260507143220 52 166 7.0 10.0 0.00 0.00 0.00 51 1018.0
20260507142723 52 164 9.0 14.0 0.00 0.00 0.00 50 1018.0
20260507142221 52 168 10.0 13.0 0.00 0.00 0.00 49 1018.0
20260507141720 52 183 10.0 13.0 0.00 0.00 0.00 48 1018.0
20260507141222 52 176 11.0 14.0 0.00 0.00 0.00 48 1018.0
20260507140721 52 184 9.0 14.0 0.00 0.00 0.00 45 1018.0
20260507140220 52 192 5.0 8.0 0.00 0.00 0.00 47 1018.0
20260507135720 52 194 9.0 13.0 0.00 0.00 0.00 49 1018.0
20260507135221 52 177 11.0 15.0 0.00 0.00 0.00 48 1018.0
20260507134723 52 173 11.0 16.0 0.00 0.00 0.00 47 1018.0
20260507134225 51 194 8.0 10.0 0.00 0.00 0.00 53 1018.0
20260507133722 50 190 6.0 14.0 0.00 0.00 0.00 54 1018.0
20260507133221 50 171 5.0 7.0 0.00 0.00 0.00 58 1018.0
20260507132720 49 186 6.0 10.0 0.00 0.00 0.00 58 1018.0
20260507132221 49 173 7.0 11.0 0.00 0.00 0.00 58 1018.0
20260507131720 49 153 6.0 9.0 0.00 0.00 0.00 57 1018.0
20260507131220 49 150 6.0 9.0 0.00 0.00 0.00 57 1018.0
20260507130720 49 157 5.0 9.0 0.00 0.00 0.00 57 1018.0
20260507130221 49 164 6.0 8.0 0.00 0.00 0.00 56 1018.0
20260507125721 49 160 9.0 12.0 0.00 0.00 0.00 55 1018.0
20260507125221 49 172 7.0 12.0 0.00 0.00 0.00 56 1018.0
20260507124720 49 172 6.0 11.0 0.00 0.00 0.00 56 1018.0
20260507123741 50 178 8.0 12.0 0.00 0.00 0.00 58 1018.0
20260507123220 50 187 8.0 10.0 0.00 0.00 0.00 58 1018.0
20260507122720 50 174 8.0 11.0 0.00 0.00 0.00 58 1018.0
20260507122221 50 184 9.0 12.0 0.00 0.00 0.00 57 1018.0
20260507121721 50 179 8.0 11.0 0.00 0.00 0.00 54 1018.0
20260507121220 51 185 9.0 12.0 0.00 0.00 0.00 52 1018.0
20260507120720 51 174 6.0 10.0 0.00 0.00 0.00 52 1018.0
20260507120220 51 192 6.0 9.0 0.00 0.00 0.00 50 1018.0
20260507115721 51 174 8.0 13.0 0.00 0.00 0.00 46 1018.0
20260507115220 51 173 8.0 11.0 0.00 0.00 0.00 44 1018.0
20260507114720 51 194 8.0 10.0 0.00 0.00 0.00 46 1018.0
20260507114220 50 168 6.0 12.0 0.00 0.00 0.00 50 1018.0
20260507113721 50 164 7.0 10.0 0.00 0.00 0.00 54 1018.0
20260507113220 50 171 5.0 9.0 0.00 0.00 0.00 57 1018.0
20260507112720 50 165 8.0 12.0 0.00 0.00 0.00 60 1018.0
20260507112222 50 180 7.0 11.0 0.00 0.00 0.00 60 1018.0
20260507111720 50 165 5.0 8.0 0.00 0.00 0.00 60 1018.0
20260507111221 50 170 4.0 6.0 0.00 0.00 0.00 60 1018.0
20260507110721 50 166 5.0 9.0 0.00 0.00 0.00 60 1018.0
20260507110224 50 168 5.0 11.0 0.00 0.00 0.00 59 1018.0
20260507105721 50 182 11.0 14.0 0.00 0.00 0.00 58 1018.0
20260507105220 50 179 2.0 5.0 0.00 0.00 0.00 57 1018.0
20260507104720 50 177 7.0 9.0 0.00 0.00 0.00 58 1018.0
20260507104221 51 183 5.0 7.0 0.00 0.00 0.00 56 1018.0
20260507103720 51 166 8.0 11.0 0.00 0.00 0.00 57 1018.0
20260507103220 51 168 5.0 6.0 0.00 0.00 0.00 57 1018.0
20260507102720 51 174 6.0 9.0 0.00 0.00 0.00 57 1018.0
20260507102226 51 180 8.0 12.0 0.00 0.00 0.00 58 1018.0
20260507101720 51 171 7.0 10.0 0.00 0.00 0.00 58 1018.0
20260507101220 51 177 7.0 12.0 0.00 0.00 0.00 59 1019.0
20260507100720 51 175 8.0 11.0 0.00 0.00 0.00 57 1019.0
20260507100222 52 175 7.0 11.0 0.00 0.00 0.00 51 1018.0
20260507095720 52 183 7.0 11.0 0.00 0.00 0.00 48 1019.0
20260507095228 52 183 9.0 14.0 0.00 0.00 0.00 50 1019.0
20260507094720 52 176 6.0 9.0 0.00 0.00 0.00 50 1019.0
20260507094220 52 185 8.0 11.0 0.00 0.00 0.00 48 1019.0
20260507093720 52 196 8.0 12.0 0.00 0.00 0.00 47 1019.0
20260507093221 52 188 9.0 13.0 0.00 0.00 0.00 48 1019.0
20260507092720 52 171 9.0 12.0 0.00 0.00 0.00 51 1019.0
20260507092221 52 176 5.0 9.0 0.00 0.00 0.00 50 1019.0
20260507091309 52 175 5.0 6.0 0.00 0.00 0.00 51 1019.0
20260507090721 52 166 5.0 7.0 0.00 0.00 0.00 53 1019.0
20260507090220 52 180 6.0 8.0 0.00 0.00 0.00 54 1019.0
20260507085721 52 163 6.0 8.0 0.00 0.00 0.00 53 1019.0
20260507085221 52 152 6.0 8.0 0.00 0.00 0.00 51 1019.0
20260507084720 52 167 4.0 6.0 0.00 0.00 0.00 50 1019.0
20260507084220 52 168 6.0 9.0 0.00 0.00 0.00 46 1019.0
20260507083721 52 177 6.0 8.0 0.00 0.00 0.00 45 1019.0
20260507083220 52 165 7.0 9.0 0.00 0.00 0.00 46 1019.0
20260507082720 52 172 6.0 8.0 0.00 0.00 0.00 47 1019.0
20260507082220 53 169 9.0 12.0 0.00 0.00 0.00 46 1019.0
20260507081720 53 162 7.0 10.0 0.00 0.00 0.00 47 1019.0
20260507081220 53 165 9.0 11.0 0.00 0.00 0.00 46 1019.0
20260507080721 53 162 8.0 9.0 0.00 0.00 0.00 47 1019.0
20260507080220 53 180 6.0 9.0 0.00 0.00 0.00 47 1019.0